| time (UTC) | temp F | wind direction | speed knots | gust knots | rain 1hr in | rain 24hr in | rain mn in | humidity % | barometer mb |
| 20260502162016 | 64 | 218 | 0.9 | 10.4 | 0.00 | 0.00 | 0.00 | 45 | 1011.3 |
| 20260502161515 | 63 | 271 | 2.6 | 10.4 | 0.00 | 0.00 | 0.00 | 46 | 1011.5 |
| 20260502161014 | 62 | 269 | 1.7 | 8.7 | 0.00 | 0.00 | 0.00 | 47 | 1011.5 |
| 20260502160513 | 61 | 246 | 1.7 | 10.4 | 0.00 | 0.00 | 0.00 | 47 | 1011.6 |
| 20260502152102 | 57 | 301 | 1.7 | 10.4 | 0.00 | 0.00 | 0.00 | 51 | 1012.4 |
| 20260502151613 | 56 | 181 | 6.1 | 13.0 | 0.00 | 0.00 | 0.00 | 51 | 1012.5 |
| 20260502151057 | 56 | 210 | 3.5 | 13.0 | 0.00 | 0.00 | 0.00 | 53 | 1012.5 |
| 20260502150556 | 55 | 169 | 2.6 | 10.4 | 0.00 | 0.00 | 0.00 | 52 | 1012.6 |
| 20260502130524 | 44 | 188 | 5.2 | 12.2 | 0.00 | 0.00 | 0.00 | 66 | 1014.1 |
| 20260502123518 | 38 | 181 | 1.7 | 4.3 | 0.00 | 0.00 | 0.00 | 77 | 1014.5 |
| 20260502123017 | 38 | 178 | 0.9 | 2.6 | 0.00 | 0.00 | 0.00 | 77 | 1014.5 |
| 20260502122515 | 37 | 179 | 0.9 | 4.3 | 0.00 | 0.00 | 0.00 | 77 | 1014.6 |
| 20260502122019 | 37 | 180 | 1.7 | 4.3 | 0.00 | 0.00 | 0.00 | 77 | 1014.8 |
| 20260502121515 | 37 | 176 | 1.7 | 4.3 | 0.00 | 0.00 | 0.00 | 77 | 1014.6 |
| 20260502121014 | 36 | 170 | 0.9 | 4.3 | 0.00 | 0.00 | 0.00 | 77 | 1014.6 |
| 20260502120518 | 36 | 165 | 1.7 | 5.2 | 0.00 | 0.00 | 0.00 | 77 | 1014.7 |
| 20260502115515 | 36 | 163 | 3.5 | 6.1 | 0.00 | 0.00 | 0.00 | 77 | 1014.7 |
| 20260502115011 | 35 | 180 | 2.6 | 5.2 | 0.00 | 0.00 | 0.00 | 78 | 1014.9 |
| 20260502114509 | 35 | 173 | 2.6 | 5.2 | 0.00 | 0.00 | 0.00 | 78 | 1014.9 |
| 20260502114012 | 35 | 160 | 2.6 | 6.1 | 0.00 | 0.00 | 0.00 | 78 | 1014.7 |
| 20260502113508 | 35 | 178 | 1.7 | 4.3 | 0.00 | 0.00 | 0.00 | 78 | 1015.0 |
| 20260502113007 | 35 | 177 | 1.7 | 4.3 | 0.00 | 0.00 | 0.00 | 78 | 1014.9 |
| 20260502112505 | 34 | 168 | 3.5 | 6.1 | 0.00 | 0.00 | 0.00 | 78 | 1014.9 |
| 20260502112005 | 34 | 168 | 2.6 | 6.1 | 0.00 | 0.00 | 0.00 | 78 | 1014.9 |
| 20260502111503 | 34 | 168 | 0.9 | 4.3 | 0.00 | 0.00 | 0.00 | 77 | 1014.9 |
| 20260502111003 | 34 | 169 | 1.7 | 6.1 | 0.00 | 0.00 | 0.00 | 77 | 1015.0 |
| 20260502110501 | 34 | 161 | 3.5 | 6.1 | 0.00 | 0.00 | 0.00 | 77 | 1015.1 |
| 20260502110100 | 34 | 165 | 3.5 | 6.1 | 0.00 | 0.00 | 0.00 | 77 | 1015.1 |
| 20260502105559 | 35 | 158 | 1.7 | 5.2 | 0.00 | 0.00 | 0.00 | 77 | 1015.1 |
| 20260502105058 | 35 | 160 | 0.9 | 5.2 | 0.00 | 0.00 | 0.00 | 76 | 1015.2 |
| 20260502104608 | 35 | 175 | 1.7 | 3.5 | 0.00 | 0.00 | 0.00 | 76 | 1015.3 |
| 20260502104056 | 35 | 175 | 1.7 | 3.5 | 0.00 | 0.00 | 0.00 | 76 | 1015.3 |
| 20260502103556 | 35 | 175 | 0.9 | 2.6 | 0.00 | 0.00 | 0.00 | 76 | 1015.3 |
| 20260502103056 | 35 | 175 | 0.9 | 4.3 | 0.00 | 0.00 | 0.00 | 76 | 1015.4 |
| 20260502102557 | 35 | 175 | 0.9 | 4.3 | 0.00 | 0.00 | 0.00 | 75 | 1015.4 |
| 20260502102053 | 35 | 168 | 3.5 | 5.2 | 0.00 | 0.00 | 0.00 | 75 | 1015.4 |
| 20260502101607 | 35 | 163 | 1.7 | 5.2 | 0.00 | 0.00 | 0.00 | 75 | 1015.6 |
| 20260502101051 | 35 | 163 | 0.9 | 4.3 | 0.00 | 0.00 | 0.00 | 75 | 1015.7 |
| 20260502100551 | 34 | 163 | 0.9 | 4.3 | 0.00 | 0.00 | 0.00 | 75 | 1015.8 |
| 20260502091045 | 35 | 165 | 0.9 | 1.7 | 0.00 | 0.00 | 0.00 | 72 | 1016.3 |
| 20260502090546 | 35 | 165 | 0.9 | 4.3 | 0.00 | 0.00 | 0.00 | 72 | 1016.3 |
| 20260502071524 | 37 | 164 | 1.7 | 3.5 | 0.00 | 0.00 | 0.00 | 63 | 1017.1 |
| 20260502071023 | 37 | 164 | 0.0 | 2.6 | 0.00 | 0.00 | 0.00 | 63 | 1017.2 |
| 20260502070522 | 37 | 164 | 0.0 | 2.6 | 0.00 | 0.00 | 0.00 | 63 | 1017.3 |
| 20260502070037 | 37 | 164 | 0.9 | 4.3 | 0.00 | 0.00 | 0.00 | 62 | 1017.2 |
| 20260502065521 | 38 | 164 | 0.0 | 4.3 | 0.00 | 0.00 | 0.00 | 61 | 1017.3 |
| 20260502065022 | 38 | 164 | 1.7 | 4.3 | 0.00 | 0.00 | 0.00 | 60 | 1017.4 |
| 20260502064519 | 38 | 164 | 1.7 | 4.3 | 0.00 | 0.00 | 0.00 | 60 | 1017.5 |
| 20260502064018 | 38 | 161 | 0.9 | 4.3 | 0.00 | 0.00 | 0.00 | 59 | 1017.5 |
| 20260502063520 | 38 | 161 | 2.6 | 4.3 | 0.00 | 0.00 | 0.00 | 59 | 1017.5 |
| 20260502063021 | 38 | 161 | 1.7 | 3.5 | 0.00 | 0.00 | 0.00 | 59 | 1017.6 |
| 20260502062516 | 38 | 161 | 1.7 | 3.5 | 0.00 | 0.00 | 0.00 | 59 | 1017.6 |
| 20260502062014 | 38 | 161 | 0.9 | 2.6 | 0.00 | 0.00 | 0.00 | 58 | 1017.5 |
| 20260502061516 | 38 | 161 | 0.0 | 2.6 | 0.00 | 0.00 | 0.00 | 58 | 1017.6 |
| 20260502061012 | 39 | 161 | 0.0 | 2.6 | 0.00 | 0.00 | 0.00 | 57 | 1017.5 |
| 20260502060512 | 39 | 161 | 0.9 | 2.6 | 0.00 | 0.00 | 0.00 | 57 | 1017.6 |
| 20260502060025 | 39 | 161 | 0.9 | 3.5 | 0.00 | 0.00 | 0.00 | 57 | 1017.6 |
| 20260502055511 | 39 | 161 | 0.0 | 2.6 | 0.00 | 0.00 | 0.00 | 57 | 1017.6 |
| 20260502055011 | 39 | 161 | 0.9 | 1.7 | 0.00 | 0.00 | 0.00 | 57 | 1017.6 |
| 20260502054507 | 40 | 161 | 0.0 | 1.7 | 0.00 | 0.00 | 0.00 | 57 | 1017.6 |
| 20260502054006 | 40 | 161 | 0.0 | 1.7 | 0.00 | 0.00 | 0.00 | 56 | 1017.6 |
| 20260502053505 | 40 | 161 | 0.0 | 0.9 | 0.00 | 0.00 | 0.00 | 56 | 1017.6 |
| 20260502053005 | 40 | 161 | 0.0 | 2.6 | 0.00 | 0.00 | 0.00 | 56 | 1017.6 |
| 20260502052509 | 41 | 161 | 0.0 | 4.3 | 0.00 | 0.00 | 0.00 | 55 | 1017.7 |
| 20260502052003 | 41 | 161 | 1.7 | 4.3 | 0.00 | 0.00 | 0.00 | 55 | 1017.7 |
| 20260502051502 | 41 | 159 | 0.0 | 1.7 | 0.00 | 0.00 | 0.00 | 56 | 1017.6 |
| 20260502051003 | 41 | 159 | 0.0 | 2.6 | 0.00 | 0.00 | 0.00 | 55 | 1017.7 |
| 20260502050501 | 41 | 159 | 0.9 | 2.6 | 0.00 | 0.00 | 0.00 | 55 | 1017.7 |
| 20260502050104 | 41 | 159 | 0.9 | 2.6 | 0.00 | 0.00 | 0.00 | 56 | 1017.7 |
| 20260502045601 | 41 | 159 | 0.0 | 1.7 | 0.00 | 0.00 | 0.00 | 56 | 1017.8 |
| 20260502045058 | 41 | 159 | 0.0 | 1.7 | 0.00 | 0.00 | 0.00 | 56 | 1017.7 |
| 20260502044558 | 42 | 159 | 0.0 | 2.6 | 0.00 | 0.00 | 0.00 | 55 | 1017.8 |
| 20260502044058 | 42 | 159 | 0.0 | 2.6 | 0.00 | 0.00 | 0.00 | 54 | 1017.7 |
| 20260502043558 | 42 | 159 | 0.0 | 5.2 | 0.00 | 0.00 | 0.00 | 54 | 1017.9 |
| 20260502043112 | 42 | 160 | 1.7 | 5.2 | 0.00 | 0.00 | 0.00 | 55 | 1017.9 |
| 20260502042600 | 42 | 143 | 0.0 | 1.7 | 0.00 | 0.00 | 0.00 | 55 | 1017.9 |
| 20260502042058 | 42 | 143 | 0.0 | 1.7 | 0.00 | 0.00 | 0.00 | 54 | 1017.9 |
| 20260502041624 | 42 | 143 | 0.0 | 2.6 | 0.00 | 0.00 | 0.00 | 54 | 1017.9 |
| 20260502041059 | 43 | 143 | 0.9 | 2.6 | 0.00 | 0.00 | 0.00 | 53 | 1018.0 |
| 20260502040556 | 43 | 143 | 0.9 | 2.6 | 0.00 | 0.00 | 0.00 | 53 | 1018.1 |
| 20260502040100 | 43 | 143 | 1.7 | 2.6 | 0.00 | 0.00 | 0.00 | 52 | 1017.9 |
| 20260502035557 | 44 | 143 | 0.0 | 3.5 | 0.00 | 0.00 | 0.00 | 51 | 1018.0 |
| 20260502035057 | 44 | 143 | 1.7 | 3.5 | 0.00 | 0.00 | 0.00 | 50 | 1018.1 |
| 20260502034557 | 45 | 97 | 0.0 | 2.6 | 0.00 | 0.00 | 0.00 | 50 | 1018.1 |
| 20260502034057 | 45 | 81 | 0.9 | 2.6 | 0.00 | 0.00 | 0.00 | 49 | 1018.1 |
| 20260502033556 | 46 | 68 | 0.0 | 1.7 | 0.00 | 0.00 | 0.00 | 47 | 1018.1 |
| 20260502033056 | 46 | 68 | 0.9 | 1.7 | 0.00 | 0.00 | 0.00 | 47 | 1018.1 |
| 20260502032556 | 47 | 68 | 0.0 | 0.0 | 0.00 | 0.00 | 0.00 | 45 | 1018.0 |
| 20260502032055 | 47 | 68 | 0.0 | 0.0 | 0.00 | 0.00 | 0.00 | 44 | 1018.1 |
| 20260502031555 | 48 | 67 | 0.0 | 1.7 | 0.00 | 0.00 | 0.00 | 43 | 1018.1 |
| 20260502031055 | 48 | 66 | 0.0 | 2.6 | 0.00 | 0.00 | 0.00 | 43 | 1018.1 |
| 20260502030554 | 49 | 66 | 0.9 | 2.6 | 0.00 | 0.00 | 0.00 | 42 | 1018.1 |
| 20260502030116 | 49 | 61 | 0.9 | 2.6 | 0.00 | 0.00 | 0.00 | 41 | 1018.1 |
| 20260502025554 | 49 | 61 | 0.9 | 2.6 | 0.00 | 0.00 | 0.00 | 41 | 1018.1 |
| 20260502025054 | 49 | 61 | 0.9 | 2.6 | 0.00 | 0.00 | 0.00 | 41 | 1018.1 |
| 20260502024604 | 49 | 61 | 0.9 | 2.6 | 0.00 | 0.00 | 0.00 | 41 | 1018.1 |
| 20260502024054 | 49 | 61 | 0.0 | 1.7 | 0.00 | 0.00 | 0.00 | 40 | 1018.1 |
| 20260502023555 | 50 | 61 | 0.0 | 1.7 | 0.00 | 0.00 | 0.00 | 40 | 1018.1 |
| 20260502023127 | 50 | 61 | 0.0 | 0.9 | 0.00 | 0.00 | 0.00 | 40 | 1018.1 |
| 20260502022557 | 50 | 62 | 0.0 | 1.7 | 0.00 | 0.00 | 0.00 | 39 | 1018.1 |
| 20260502022054 | 51 | 62 | 0.0 | 1.7 | 0.00 | 0.00 | 0.00 | 39 | 1018.1 |
| 20260502021553 | 51 | 62 | 0.0 | 2.6 | 0.00 | 0.00 | 0.00 | 39 | 1018.0 |
| 20260502021054 | 51 | 62 | 0.9 | 2.6 | 0.00 | 0.00 | 0.00 | 38 | 1018.0 |
| 20260502020553 | 51 | 33 | 0.9 | 3.5 | 0.00 | 0.00 | 0.00 | 38 | 1017.9 |
| 20260502020057 | 51 | 29 | 0.9 | 3.5 | 0.00 | 0.00 | 0.00 | 37 | 1018.0 |
| 20260502015556 | 52 | 26 | 0.9 | 4.3 | 0.00 | 0.00 | 0.00 | 37 | 1018.1 |
| 20260502015053 | 52 | 26 | 1.7 | 5.2 | 0.00 | 0.00 | 0.00 | 37 | 1018.1 |
| 20260502014604 | 52 | 27 | 2.6 | 5.2 | 0.00 | 0.00 | 0.00 | 36 | 1018.0 |
| 20260502014052 | 52 | 335 | 0.9 | 2.6 | 0.00 | 0.00 | 0.00 | 36 | 1018.0 |
| 20260502013552 | 53 | 333 | 1.7 | 3.5 | 0.00 | 0.00 | 0.00 | 35 | 1018.0 |
| 20260502013100 | 53 | 331 | 1.7 | 3.5 | 0.00 | 0.00 | 0.00 | 35 | 1018.0 |
| 20260502012552 | 53 | 317 | 1.7 | 3.5 | 0.00 | 0.00 | 0.00 | 35 | 1018.0 |
| 20260502012052 | 53 | 12 | 1.7 | 3.5 | 0.00 | 0.00 | 0.00 | 34 | 1018.0 |
| 20260502011605 | 53 | 13 | 0.9 | 3.5 | 0.00 | 0.00 | 0.00 | 34 | 1017.9 |
| 20260502011051 | 53 | 330 | 0.9 | 5.2 | 0.00 | 0.00 | 0.00 | 34 | 1017.9 |
| 20260502010551 | 54 | 338 | 1.7 | 5.2 | 0.00 | 0.00 | 0.00 | 34 | 1017.8 |
| 20260502010051 | 54 | 318 | 0.9 | 7.8 | 0.00 | 0.00 | 0.00 | 34 | 1017.8 |
| 20260502005551 | 54 | 346 | 2.6 | 8.7 | 0.00 | 0.00 | 0.00 | 34 | 1017.9 |
| 20260502005051 | 54 | 287 | 2.6 | 8.7 | 0.00 | 0.00 | 0.00 | 34 | 1017.8 |
| 20260502004551 | 54 | 284 | 2.6 | 8.7 | 0.00 | 0.00 | 0.00 | 33 | 1017.8 |
| 20260502004051 | 54 | 319 | 5.2 | 8.7 | 0.00 | 0.00 | 0.00 | 33 | 1017.9 |
| 20260502003550 | 55 | 347 | 2.6 | 8.7 | 0.00 | 0.00 | 0.00 | 33 | 1017.8 |
| 20260502003050 | 55 | 340 | 2.6 | 8.7 | 0.00 | 0.00 | 0.00 | 33 | 1017.8 |
| 20260502002550 | 55 | 254 | 2.6 | 7.8 | 0.00 | 0.00 | 0.00 | 32 | 1017.8 |
| 20260502002050 | 55 | 300 | 1.7 | 7.0 | 0.00 | 0.00 | 0.00 | 33 | 1017.8 |
| 20260502001558 | 56 | 302 | 1.7 | 7.0 | 0.00 | 0.00 | 0.00 | 34 | 1017.9 |
| 20260502001049 | 56 | 306 | 0.9 | 7.8 | 0.00 | 0.00 | 0.00 | 34 | 1017.9 |
| 20260502000549 | 56 | 325 | 4.3 | 9.6 | 0.00 | 0.00 | 0.00 | 33 | 1017.9 |
| 20260502000100 | 56 | 277 | 5.2 | 8.7 | 0.00 | 0.00 | 0.00 | 33 | 1017.9 |
| 20260501235550 | 55 | 331 | 1.7 | 7.8 | 0.00 | 0.00 | 0.00 | 32 | 1017.9 |
| 20260501235048 | 56 | 298 | 4.3 | 8.7 | 0.00 | 0.00 | 0.00 | 33 | 1018.1 |
| 20260501234548 | 56 | 242 | 2.6 | 8.7 | 0.00 | 0.00 | 0.00 | 34 | 1018.2 |
| 20260501234048 | 56 | 325 | 3.5 | 7.8 | 0.00 | 0.00 | 0.00 | 34 | 1018.2 |
| 20260501233548 | 56 | 331 | 0.9 | 7.8 | 0.00 | 0.00 | 0.00 | 34 | 1018.2 |
| 20260501233102 | 55 | 355 | 1.7 | 7.8 | 0.00 | 0.00 | 0.00 | 34 | 1018.2 |
| 20260501232546 | 55 | 283 | 5.2 | 8.7 | 0.00 | 0.00 | 0.00 | 34 | 1018.1 |
| 20260501232046 | 55 | 282 | 5.2 | 8.7 | 0.00 | 0.00 | 0.00 | 34 | 1018.1 |
| 20260501231600 | 55 | 277 | 3.5 | 7.0 | 0.00 | 0.00 | 0.00 | 35 | 1018.1 |
| 20260501231045 | 55 | 264 | 3.5 | 8.7 | 0.00 | 0.00 | 0.00 | 35 | 1018.1 |
| 20260501230545 | 55 | 312 | 3.5 | 13.9 | 0.00 | 0.00 | 0.00 | 35 | 1018.2 |
| 20260501230113 | 56 | 270 | 6.1 | 13.9 | 0.00 | 0.00 | 0.00 | 34 | 1018.2 |
| 20260501225546 | 56 | 336 | 5.2 | 8.7 | 0.00 | 0.00 | 0.00 | 34 | 1018.3 |
| 20260501225045 | 55 | 263 | 1.7 | 7.0 | 0.00 | 0.00 | 0.00 | 37 | 1018.2 |
| 20260501224556 | 55 | 47 | 0.0 | 5.2 | 0.00 | 0.00 | 0.00 | 35 | 1018.2 |
| 20260501224042 | 55 | 38 | 1.7 | 5.2 | 0.00 | 0.00 | 0.00 | 36 | 1018.2 |
| 20260501223542 | 55 | 351 | 1.7 | 7.0 | 0.00 | 0.00 | 0.00 | 36 | 1018.3 |
| 20260501223051 | 55 | 309 | 0.9 | 7.0 | 0.00 | 0.00 | 0.00 | 36 | 1018.2 |
| 20260501222542 | 55 | 38 | 0.0 | 11.3 | 0.00 | 0.00 | 0.00 | 37 | 1018.3 |
| 20260501222042 | 55 | 342 | 2.6 | 11.3 | 0.00 | 0.00 | 0.00 | 36 | 1018.3 |
| 20260501221541 | 55 | 350 | 6.1 | 10.4 | 0.00 | 0.00 | 0.00 | 36 | 1018.3 |
| 20260501221040 | 54 | 110 | 2.6 | 7.0 | 0.00 | 0.00 | 0.00 | 37 | 1018.2 |
| 20260501220539 | 54 | 227 | 0.9 | 7.0 | 0.00 | 0.00 | 0.00 | 37 | 1018.4 |
| 20260501220041 | 54 | 286 | 4.3 | 8.7 | 0.00 | 0.00 | 0.00 | 36 | 1018.5 |
| 20260501215539 | 55 | 298 | 4.3 | 8.7 | 0.00 | 0.00 | 0.00 | 37 | 1018.5 |
| 20260501215041 | 55 | 355 | 0.9 | 10.4 | 0.00 | 0.00 | 0.00 | 36 | 1018.5 |
| 20260501214538 | 55 | 333 | 5.2 | 10.4 | 0.00 | 0.00 | 0.00 | 37 | 1018.5 |
| 20260501214038 | 54 | 344 | 1.7 | 7.0 | 0.00 | 0.00 | 0.00 | 36 | 1018.5 |
| 20260501213537 | 55 | 256 | 2.6 | 10.4 | 0.00 | 0.00 | 0.00 | 34 | 1018.6 |
| 20260501213037 | 55 | 5 | 4.3 | 13.0 | 0.00 | 0.00 | 0.00 | 36 | 1018.7 |
| 20260501212537 | 55 | 307 | 6.1 | 13.0 | 0.00 | 0.00 | 0.00 | 37 | 1018.6 |
| 20260501212036 | 55 | 267 | 0.9 | 8.7 | 0.00 | 0.00 | 0.00 | 39 | 1018.6 |
| 20260501211537 | 55 | 53 | 0.9 | 11.3 | 0.00 | 0.00 | 0.00 | 38 | 1018.7 |
| 20260501211037 | 54 | 298 | 6.1 | 11.3 | 0.00 | 0.00 | 0.00 | 37 | 1018.8 |
| 20260501210534 | 54 | 30 | 4.3 | 9.6 | 0.00 | 0.00 | 0.00 | 38 | 1018.7 |
| 20260501210037 | 54 | 31 | 2.6 | 10.4 | 0.00 | 0.00 | 0.00 | 37 | 1018.9 |
| 20260501205536 | 54 | 335 | 3.5 | 7.8 | 0.00 | 0.00 | 0.00 | 38 | 1019.0 |
| 20260501205034 | 54 | 295 | 0.9 | 10.4 | 0.00 | 0.00 | 0.00 | 39 | 1019.0 |
| 20260501204535 | 54 | 214 | 3.5 | 11.3 | 0.00 | 0.00 | 0.00 | 37 | 1019.0 |
| 20260501204034 | 55 | 326 | 3.5 | 10.4 | 0.00 | 0.00 | 0.00 | 40 | 1019.1 |
| 20260501203531 | 54 | 19 | 0.9 | 9.6 | 0.00 | 0.00 | 0.00 | 40 | 1019.1 |
| 20260501203030 | 54 | 333 | 1.7 | 10.4 | 0.00 | 0.00 | 0.00 | 41 | 1019.2 |
| 20260501202530 | 54 | 282 | 2.6 | 12.2 | 0.00 | 0.00 | 0.00 | 39 | 1019.2 |
| 20260501202033 | 54 | 50 | 0.9 | 12.2 | 0.00 | 0.00 | 0.00 | 39 | 1019.4 |
| 20260501201530 | 54 | 323 | 1.7 | 12.2 | 0.00 | 0.00 | 0.00 | 40 | 1019.4 |
| 20260501201027 | 54 | 360 | 4.3 | 12.2 | 0.00 | 0.00 | 0.00 | 40 | 1019.4 |
| 20260501200530 | 54 | 340 | 5.2 | 11.3 | 0.00 | 0.00 | 0.00 | 40 | 1019.5 |
| 20260501200028 | 53 | 340 | 4.3 | 11.3 | 0.00 | 0.00 | 0.00 | 40 | 1019.6 |
| 20260501195526 | 53 | 108 | 0.9 | 9.6 | 0.00 | 0.00 | 0.00 | 41 | 1019.5 |
| 20260501195026 | 53 | 349 | 2.6 | 9.6 | 0.00 | 0.00 | 0.00 | 41 | 1019.6 |
| 20260501194526 | 53 | 331 | 2.6 | 7.8 | 0.00 | 0.00 | 0.00 | 40 | 1019.7 |
| 20260501194025 | 53 | 229 | 1.7 | 6.1 | 0.00 | 0.00 | 0.00 | 41 | 1019.6 |
| 20260501193524 | 53 | 229 | 1.7 | 9.6 | 0.00 | 0.00 | 0.00 | 42 | 1019.7 |
| 20260501193026 | 53 | 286 | 4.3 | 10.4 | 0.00 | 0.00 | 0.00 | 42 | 1019.8 |
| 20260501192523 | 53 | 25 | 5.2 | 10.4 | 0.00 | 0.00 | 0.00 | 43 | 1019.8 |
| 20260501192024 | 52 | 138 | 2.6 | 9.6 | 0.00 | 0.00 | 0.00 | 44 | 1019.8 |
| 20260501191522 | 52 | 297 | 4.3 | 9.6 | 0.00 | 0.00 | 0.00 | 44 | 1019.9 |
| 20260501191024 | 53 | 276 | 3.5 | 9.6 | 0.00 | 0.00 | 0.00 | 44 | 1019.7 |
| 20260501190520 | 52 | 19 | 2.6 | 9.6 | 0.00 | 0.00 | 0.00 | 44 | 1019.8 |
| 20260501190022 | 52 | 289 | 2.6 | 7.0 | 0.00 | 0.00 | 0.00 | 45 | 1019.9 |
| 20260501185519 | 51 | 360 | 2.6 | 8.7 | 0.00 | 0.00 | 0.00 | 43 | 1019.9 |
| 20260501185020 | 52 | 31 | 2.6 | 8.7 | 0.00 | 0.00 | 0.00 | 46 | 1020.0 |
| 20260501184522 | 52 | 313 | 3.5 | 9.6 | 0.00 | 0.00 | 0.00 | 46 | 1020.0 |
| 20260501184019 | 52 | 339 | 4.3 | 9.6 | 0.00 | 0.00 | 0.00 | 45 | 1020.0 |
| 20260501183517 | 51 | 278 | 0.0 | 7.0 | 0.00 | 0.00 | 0.00 | 44 | 1020.0 |
| 20260501183016 | 51 | 269 | 1.7 | 7.0 | 0.00 | 0.00 | 0.00 | 46 | 1020.1 |
| 20260501182515 | 51 | 40 | 0.0 | 7.0 | 0.00 | 0.00 | 0.00 | 46 | 1020.2 |
| 20260501182015 | 50 | 134 | 0.9 | 9.6 | 0.00 | 0.00 | 0.00 | 46 | 1020.1 |
| 20260501181516 | 50 | 261 | 3.5 | 9.6 | 0.00 | 0.00 | 0.00 | 48 | 1020.3 |
| 20260501181014 | 50 | 302 | 2.6 | 9.6 | 0.00 | 0.00 | 0.00 | 49 | 1020.2 |
| 20260501180519 | 50 | 265 | 3.5 | 9.6 | 0.00 | 0.00 | 0.00 | 45 | 1020.2 |
| 20260501180015 | 50 | 261 | 0.9 | 7.8 | 0.00 | 0.00 | 0.00 | 47 | 1020.3 |
| 20260501175513 | 50 | 284 | 2.6 | 7.8 | 0.00 | 0.00 | 0.00 | 47 | 1020.4 |
| 20260501175013 | 50 | 296 | 0.9 | 5.2 | 0.00 | 0.00 | 0.00 | 47 | 1020.5 |
| 20260501174511 | 49 | 308 | 1.7 | 7.0 | 0.00 | 0.00 | 0.00 | 47 | 1020.6 |
| 20260501174012 | 49 | 278 | 1.7 | 7.0 | 0.00 | 0.00 | 0.00 | 48 | 1020.6 |
| 20260501173511 | 50 | 319 | 0.9 | 7.0 | 0.00 | 0.00 | 0.00 | 50 | 1020.6 |
| 20260501173020 | 49 | 311 | 1.7 | 7.8 | 0.00 | 0.00 | 0.00 | 48 | 1020.8 |
| 20260501172509 | 49 | 318 | 4.3 | 7.8 | 0.00 | 0.00 | 0.00 | 48 | 1020.7 |
| 20260501172011 | 49 | 155 | 0.9 | 5.2 | 0.00 | 0.00 | 0.00 | 47 | 1020.7 |
| 20260501171506 | 49 | 183 | 1.7 | 7.0 | 0.00 | 0.00 | 0.00 | 49 | 1020.9 |
| 20260501171006 | 49 | 302 | 1.7 | 10.4 | 0.00 | 0.00 | 0.00 | 49 | 1020.9 |
| 20260501170504 | 48 | 296 | 4.3 | 10.4 | 0.00 | 0.00 | 0.00 | 50 | 1020.9 |
| 20260501170104 | 48 | 355 | 2.6 | 8.7 | 0.00 | 0.00 | 0.00 | 50 | 1020.9 |
| 20260501165503 | 47 | 335 | 3.5 | 9.6 | 0.00 | 0.00 | 0.00 | 50 | 1020.9 |
| 20260501165001 | 48 | 349 | 1.7 | 9.6 | 0.00 | 0.00 | 0.00 | 51 | 1020.9 |
| 20260501164620 | 48 | 349 | 1.7 | 8.7 | 0.00 | 0.00 | 0.00 | 52 | 1021.0 |
| 20260501164101 | 47 | 339 | 3.5 | 7.8 | 0.00 | 0.00 | 0.00 | 51 | 1021.1 |
| 20260501163558 | 48 | 18 | 0.9 | 8.7 | 0.00 | 0.00 | 0.00 | 50 | 1021.0 |
| 20260501163058 | 48 | 328 | 1.7 | 8.7 | 0.00 | 0.00 | 0.00 | 55 | 1021.0 |
| 20260501162556 | 47 | 13 | 2.6 | 8.7 | 0.00 | 0.00 | 0.00 | 53 | 1021.0 |